Wind_Speed
36 37 37 37 35 34 35 36 36 35 34 34 32 32 31 31 33 35 36 35 36 38 40 42 41 41 41 42 44 45 46 47 48 49 50 50 51 51 52 52 53 54 56
39 38 39 39 38 37 37 37 38 39 38 36 35 35 35 36 39 40 39 38 39 41 44 45 45 45 45 45 46 47 49 50 51 51 51 51 52 53 54 54 56 57 58
43 43 42 41 40 38 37 38 40 41 40 39 38 37 38 40 42 43 42 41 42 45 46 47 46 46 45 46 48 49 50 52 53 52 51 52 52 53 55 57 58 59 60
43 43 42 38 36 36 37 39 41 42 42 40 39 39 39 41 43 43 42 43 44 45 46 47 47 47 48 49 49 50 51 51 51 51 51 52 53 54 56 59 61 62 63
43 40 35 33 33 36 38 39 41 41 41 40 40 39 38 39 42 43 43 45 45 46 47 48 49 49 50 50 51 52 51 50 51 53 55 56 58 58 58 59 61 63 64
41 36 32 32 34 36 39 41 40 39 38 38 38 38 38 39 41 42 44 46 46 48 49 49 49 49 50 52 53 53 53 54 56 58 59 59 59 59 59 58 58 60 62
32 31 31 32 35 38 41 42 42 37 35 36 37 38 38 39 41 43 44 45 47 47 48 48 48 49 51 52 53 54 55 57 59 60 60 59 58 58 58 58 59 61 63
27 29 30 32 37 41 43 42 40 35 31 33 35 37 39 40 41 43 44 46 47 48 49 49 51 53 53 53 54 56 58 59 60 59 58 58 58 59 61 63 65 65 66
26 29 33 36 40 42 42 39 35 30 30 33 36 39 41 43 45 46 47 48 49 51 51 52 54 54 55 56 57 59 60 60 59 58 57 58 60 62 64 66 68 70 69
31 32 34 36 36 37 36 35 31 30 32 35 39 42 45 47 47 48 49 49 50 50 50 52 54 56 57 57 59 60 61 60 58 58 58 60 62 64 67 69 71 72 73
34 35 36 37 37 37 36 32 30 31 34 38 42 45 48 50 50 50 50 50 51 53 55 56 58 59 59 60 62 63 62 60 59 59 61 63 64 66 68 69 71 72 73
35 37 38 39 37 36 34 30 30 33 37 41 45 48 50 51 50 49 51 53 55 56 57 58 58 59 60 62 63 62 60 59 59 60 62 64 66 67 68 69 70 72 73
39 39 37 37 37 36 33 32 33 36 40 44 47 49 49 48 50 52 54 57 58 58 58 57 57 58 59 59 58 58 58 58 59 60 62 63 65 66 68 69 70 71 69
39 36 37 38 36 35 34 34 36 39 43 46 48 49 51 53 55 57 59 59 58 57 57 56 56 57 57 58 59 58 57 57 57 59 61 62 64 66 67 67 66 63 58
33 34 37 39 39 37 36 37 39 42 45 48 50 53 55 57 59 60 59 58 57 56 57 57 58 59 58 58 56 54 54 55 56 58 60 61 63 65 64 60 54 49 45
32 36 41 42 43 42 43 43 44 46 49 51 53 55 57 58 58 57 57 57 57 58 58 58 59 58 56 53 52 52 53 54 55 57 59 59 59 57 52 46 41 38 36
38 41 44 45 46 47 47 47 48 49 50 52 52 53 53 53 52 54 56 57 58 58 57 56 56 53 51 49 49 50 52 54 55 55 54 52 48 43 38 34 32 30 27
46 47 48 48 48 48 48 48 48 48 49 48 47 47 48 49 52 53 55 55 54 54 53 53 51 49 48 48 49 50 51 51 50 48 45 41 36 32 29 26 23 20 17
49 49 48 47 46 46 47 46 46 45 43 42 43 45 48 49 51 52 52 52 51 50 50 48 47 46 47 47 48 47 45 44 42 40 35 31 27 24 22 18 14 12 11
48 47 46 45 45 45 45 44 43 40 40 41 43 45 47 48 48 49 49 49 47 46 45 45 45 45 45 44 41 38 37 37 36 32 28 25 22 20 16 13 11 10 10
47 46 44 43 43 43 43 41 39 38 38 39 40 42 44 45 46 46 45 44 43 43 43 43 43 41 39 35 32 31 32 31 27 24 21 20 17 14 11 10 10 10 10
42 41 41 41 41 41 39 38 36 36 37 38 40 42 43 42 41 41 41 42 42 42 41 40 37 34 29 27 27 29 29 24 20 17 15 13 11 10 9 9 10 11 12
38 38 39 39 39 37 35 34 34 35 36 38 38 39 39 39 40 41 41 41 40 38 36 32 29 27 26 26 27 27 23 17 14 11 9 8 7 7 8 10 12 13 14
36 36 36 35 34 32 32 32 33 34 34 35 36 37 38 39 40 40 39 36 34 31 27 25 25 26 26 26 26 23 17 11 8 5 4 5 6 7 9 11 13 14 14
33 32 30 29 28 28 29 30 31 32 33 35 36 37 38 37 36 34 32 29 26 24 24 25 25 25 24 22 21 16 11 6 3 2 3 4 6 9 11 12 13 14 14
24 23 23 23 24 25 26 28 30 32 34 36 36 36 34 32 29 27 25 24 24 24 24 24 23 21 19 17 14 10 5 2 1 2 3 5 7 10 12 12 13 13 15
Wind_Direction
282 287 292 296 300 304 308 310 306 302 301 298 294 292 291 291 292 293 292 292 293 293 293 292 293 294 296 297 297 295 294 294 294 295 295 294 293 292 292 292 292 292 291
281 287 291 295 298 302 304 304 301 296 292 291 288 285 283 283 284 287 288 289 289 288 288 288 290 292 294 295 294 293 294 295 295 295 294 293 293 292 292 292 293 293 292
280 285 290 294 296 298 299 298 295 292 288 286 285 282 279 279 282 285 287 288 286 285 286 289 290 293 295 296 295 294 295 296 296 296 295 294 293 293 293 292 292 291 289
275 281 286 290 292 293 293 294 293 289 285 286 286 283 280 280 283 286 288 287 287 288 289 291 294 296 297 296 295 294 295 297 297 297 297 296 294 292 290 291 290 289 289
273 278 282 285 286 286 288 292 291 288 286 285 286 285 282 282 284 286 286 287 290 292 293 294 296 297 296 295 295 295 296 296 297 297 296 294 293 292 290 288 289 291 291
267 271 277 280 281 282 284 287 286 284 283 284 285 284 284 285 286 287 289 290 293 294 294 295 295 295 295 295 295 296 296 296 296 296 294 293 292 291 291 290 290 291 291
259 267 271 272 273 273 276 279 279 278 282 285 285 286 287 287 287 288 290 291 292 294 294 294 294 294 294 295 294 295 295 295 295 294 293 292 292 292 292 293 293 293 292
263 268 269 267 268 270 273 275 279 284 286 286 286 288 289 290 291 290 291 292 293 293 293 292 293 293 293 293 294 295 294 295 294 293 292 292 292 292 293 294 294 293 292
271 270 270 269 271 274 278 278 281 284 283 284 286 288 291 293 293 293 294 295 296 296 296 295 294 293 294 295 296 295 296 296 295 294 293 293 293 294 295 295 294 292 290
269 270 272 275 278 284 285 283 280 279 280 282 285 289 291 293 293 293 294 295 297 298 298 298 296 295 296 297 298 298 297 296 295 295 296 296 296 296 295 294 293 292 292
269 272 277 280 284 289 288 279 276 277 279 281 284 287 289 291 291 292 293 296 299 300 299 297 296 294 295 296 299 298 295 294 294 295 297 297 297 296 295 295 295 295 294
271 274 279 280 285 289 282 274 273 275 277 279 282 285 287 289 289 292 295 298 300 300 298 296 294 294 295 297 299 298 295 294 296 297 298 297 297 297 297 296 296 295 294
271 274 280 283 287 287 278 271 272 273 274 277 280 283 286 288 290 293 296 297 298 297 295 293 294 296 298 300 301 300 298 297 298 298 298 298 298 298 297 296 295 295 295
270 276 282 285 287 288 284 278 276 275 274 276 279 283 286 288 290 292 294 294 294 294 294 294 297 300 301 302 302 302 300 300 300 300 299 299 299 298 297 296 296 297 297
275 281 285 288 290 291 288 284 281 278 278 279 281 284 286 288 289 291 292 293 293 293 296 298 300 303 303 304 304 303 302 302 302 301 301 300 298 297 298 299 299 299 299
281 285 287 289 289 289 288 286 285 283 283 284 284 285 286 287 289 291 292 293 294 296 298 299 301 303 305 305 305 304 303 303 303 303 302 300 299 300 302 303 303 303 303
290 288 287 287 287 287 288 288 288 288 288 288 288 288 289 289 289 290 291 294 295 298 300 301 303 304 305 305 305 305 305 305 305 304 303 303 304 305 307 308 308 308 309
289 288 287 287 288 289 290 291 291 290 290 290 290 290 287 286 288 289 292 295 297 299 300 302 303 305 305 306 307 307 307 307 307 307 308 309 311 312 315 317 317 318 322
288 288 289 289 290 291 292 292 291 290 289 287 285 283 283 287 290 292 295 296 298 299 301 303 305 306 307 308 308 309 309 310 312 313 315 318 321 326 330 334 340 345 349
287 288 289 290 290 291 292 293 292 290 287 284 282 283 286 289 291 294 296 298 300 302 304 305 306 307 308 309 310 312 313 315 317 319 323 328 335 342 349 359 7 12 11
284 285 286 287 289 291 293 294 293 291 289 287 287 288 290 291 294 297 299 301 303 304 305 305 307 308 309 310 312 314 316 317 319 323 327 334 344 355 6 16 21 21 17
281 282 283 286 289 291 292 293 292 291 290 290 290 292 294 296 298 300 302 304 305 306 306 307 308 309 309 311 313 315 317 318 321 327 333 342 354 6 17 23 22 17 13
280 282 284 287 289 290 291 291 290 291 293 294 296 298 300 302 303 305 306 307 307 307 307 308 308 308 309 311 312 314 317 318 323 331 341 357 12 20 22 19 15 12 11
281 283 285 287 288 289 290 292 294 297 298 299 300 302 304 306 307 307 307 306 306 306 306 307 308 309 310 311 312 314 315 317 326 341 9 26 28 22 18 15 14 14 13
282 283 284 285 287 290 294 298 300 301 302 303 304 305 306 307 307 307 306 306 306 306 306 307 308 309 310 311 311 311 309 313 327 22 53 40 26 19 18 18 19 20 19
280 280 281 285 291 297 301 304 305 306 306 306 306 307 308 309 310 310 309 310 309 308 308 308 308 309 310 310 307 299 286 274 150 100 68 36 26 23 24 26 29 28 26
Height
5862 5862 5862 5861 5861 5860 5859 5857 5856 5854 5853 5851 5850 5849 5849 5848 5846 5843 5841 5840 5838 5835 5832 5830 5828 5825 5823 5821 5819 5815 5812 5809 5807 5804 5801 5798 5793 5789 5786 5782 5778 5774 5770
5855 5855 5856 5855 5854 5854 5853 5852 5851 5849 5847 5845 5845 5844 5843 5841 5838 5835 5832 5830 5828 5826 5823 5820 5819 5817 5814 5812 5809 5805 5802 5798 5795 5793 5790 5787 5783 5777 5773 5769 5764 5760 5756
5849 5849 5849 5850 5849 5849 5848 5847 5845 5842 5840 5837 5837 5836 5835 5833 5831 5827 5824 5822 5819 5816 5814 5812 5810 5807 5804 5801 5798 5795 5791 5787 5783 5780 5777 5773 5770 5765 5760 5755 5751 5747 5742
5844 5844 5845 5845 5844 5843 5842 5840 5838 5835 5831 5829 5828 5828 5826 5825 5823 5819 5816 5813 5810 5807 5805 5802 5800 5798 5794 5791 5787 5784 5781 5776 5771 5767 5763 5759 5756 5753 5749 5742 5736 5732 5727
5839 5839 5839 5839 5839 5837 5836 5834 5830 5827 5824 5821 5821 5820 5819 5817 5815 5812 5808 5805 5801 5798 5796 5793 5790 5787 5783 5780 5776 5772 5769 5764 5760 5755 5750 5745 5741 5737 5734 5730 5724 5717 5712
5833 5832 5833 5833 5832 5831 5829 5827 5824 5820 5817 5815 5815 5813 5811 5810 5807 5804 5800 5796 5793 5790 5786 5783 5780 5776 5772 5769 5764 5761 5757 5752 5747 5741 5736 5731 5726 5721 5717 5714 5709 5704 5698
5826 5826 5827 5827 5826 5823 5821 5818 5815 5811 5809 5809 5807 5806 5804 5802 5800 5797 5793 5789 5785 5781 5777 5773 5769 5766 5762 5758 5754 5750 5746 5740 5735 5729 5723 5717 5711 5706 5701 5696 5692 5688 5683
5820 5820 5820 5819 5817 5815 5812 5809 5805 5803 5802 5802 5801 5799 5797 5795 5792 5788 5785 5780 5776 5772 5768 5764 5760 5755 5751 5747 5742 5738 5732 5727 5721 5715 5708 5703 5696 5691 5684 5679 5674 5670 5666
5814 5814 5812 5811 5810 5807 5804 5801 5799 5797 5796 5795 5793 5791 5789 5786 5782 5778 5774 5770 5765 5761 5757 5753 5749 5744 5739 5734 5729 5723 5717 5711 5705 5699 5693 5688 5681 5675 5667 5660 5654 5649 5646
5806 5806 5805 5803 5802 5800 5797 5793 5791 5790 5789 5788 5786 5783 5780 5776 5773 5769 5764 5760 5755 5751 5746 5741 5736 5731 5725 5720 5714 5708 5703 5697 5690 5684 5678 5672 5665 5658 5650 5642 5634 5626 5621
5798 5798 5797 5795 5794 5792 5789 5787 5785 5784 5782 5780 5777 5774 5770 5766 5762 5758 5754 5749 5745 5740 5735 5729 5723 5718 5711 5706 5700 5695 5689 5682 5676 5670 5663 5656 5649 5641 5633 5624 5616 5607 5599
5790 5790 5789 5787 5786 5783 5781 5780 5778 5777 5774 5771 5768 5764 5760 5756 5752 5747 5742 5737 5732 5727 5722 5716 5710 5704 5698 5692 5686 5679 5674 5668 5662 5655 5648 5640 5632 5623 5615 5606 5597 5588 5579
5783 5782 5781 5779 5777 5776 5774 5772 5771 5768 5765 5762 5758 5754 5749 5745 5741 5736 5731 5725 5720 5715 5709 5703 5697 5690 5684 5678 5672 5666 5659 5653 5647 5640 5632 5623 5615 5606 5597 5588 5579 5570 5561
5774 5773 5772 5771 5769 5767 5765 5763 5762 5759 5755 5751 5747 5743 5738 5733 5728 5723 5718 5712 5707 5701 5695 5689 5683 5677 5671 5665 5658 5652 5645 5638 5631 5623 5616 5607 5598 5589 5580 5571 5562 5553 5546
5764 5764 5763 5762 5760 5758 5756 5754 5751 5748 5744 5740 5735 5730 5725 5720 5715 5710 5704 5699 5693 5687 5682 5676 5670 5664 5657 5651 5644 5637 5630 5623 5616 5608 5600 5591 5581 5571 5563 5554 5547 5540 5533
5754 5754 5753 5752 5750 5748 5746 5743 5740 5736 5732 5727 5722 5717 5712 5707 5701 5696 5690 5684 5679 5674 5668 5662 5656 5650 5644 5637 5630 5623 5616 5609 5602 5594 5584 5575 5565 5557 5549 5541 5535 5528 5522
5744 5744 5743 5741 5739 5736 5734 5730 5727 5722 5718 5713 5708 5703 5698 5692 5687 5682 5677 5672 5666 5660 5655 5649 5643 5637 5631 5624 5617 5610 5603 5595 5587 5579 5570 5561 5553 5546 5539 5533 5526 5520 5515
5733 5732 5730 5728 5726 5723 5720 5716 5712 5708 5703 5698 5694 5689 5684 5679 5674 5669 5664 5658 5653 5647 5642 5636 5630 5625 5618 5612 5605 5597 5590 5581 5573 5566 5558 5551 5544 5537 5531 5525 5520 5515 5512
5721 5720 5718 5716 5714 5711 5707 5703 5699 5694 5690 5686 5682 5677 5672 5666 5662 5657 5652 5646 5641 5635 5629 5624 5618 5613 5606 5600 5593 5585 5577 5570 5563 5556 5550 5544 5538 5532 5526 5521 5517 5514 5512
5711 5709 5707 5705 5703 5699 5695 5691 5687 5682 5678 5674 5670 5665 5661 5655 5650 5645 5640 5634 5629 5623 5617 5612 5607 5601 5595 5588 5582 5575 5569 5562 5556 5550 5544 5538 5533 5528 5524 5520 5518 5516 5513
5701 5700 5698 5695 5692 5688 5684 5679 5675 5671 5667 5663 5659 5654 5650 5645 5639 5634 5628 5623 5617 5612 5606 5601 5596 5590 5584 5578 5574 5568 5563 5557 5552 5546 5541 5536 5532 5528 5525 5523 5520 5518 5515
5691 5690 5688 5685 5681 5677 5673 5669 5665 5661 5657 5652 5648 5644 5639 5634 5628 5623 5617 5612 5606 5600 5595 5589 5584 5579 5575 5571 5567 5563 5557 5552 5548 5544 5540 5536 5533 5530 5528 5525 5523 5520 5517
5682 5680 5678 5675 5671 5668 5664 5660 5656 5652 5647 5642 5637 5632 5627 5622 5617 5612 5606 5601 5595 5589 5584 5580 5576 5572 5569 5565 5561 5557 5552 5549 5546 5543 5540 5537 5535 5533 5530 5528 5525 5522 5518
5673 5671 5668 5665 5662 5659 5655 5651 5647 5643 5638 5633 5627 5622 5617 5612 5607 5601 5596 5591 5586 5581 5577 5573 5570 5566 5563 5559 5555 5551 5548 5546 5544 5542 5540 5539 5537 5534 5532 5529 5526 5523 5520
5663 5662 5659 5657 5654 5651 5647 5643 5639 5634 5629 5624 5619 5613 5608 5603 5598 5592 5587 5582 5578 5575 5572 5568 5564 5560 5557 5553 5550 5547 5545 5544 5543 5542 5541 5540 5539 5536 5533 5531 5528 5525 5522
5655 5654 5652 5650 5647 5643 5640 5635 5631 5626 5621 5615 5610 5604 5599 5594 5589 5584 5580 5576 5572 5569 5565 5561 5557 5554 5551 5548 5546 5544 5544 5543 5543 5543 5543 5542 5540 5537 5535 5533 5530 5528 5525